Location: Misciano
(43.5000°N, 11.9500°E)
Time: 21:40:52
(UTC+00:00)

USA 32 - Pass Details

Date: 13 August 2020
Orbit: 778 x 782 km, 85.0° (Epoch: 21 September)

Event Time Altitude Azimuth Distance (km) Brightness Sun altitude
Exits shadow 19:47:42 13° 170° (S) 2,102 5.8 -15.0°
Maximum altitude 19:52:16 63° 91° (E) 868 4.0 -15.7°
Drops below altitude 10° 19:57:27 10° 11° (N) 2,342 6.9 -16.4°
Sets 19:59:49 0° 9° (N) 3,274 7.7 -16.7°
